CAPE
0 0 0 0 0 0 0 0 0 0 0 0 0 0 0 0 0 0 0 0 0 0 0 0 0 0 0 0 0 0 0 0 0 0 0 0 0 0 0 0 0 0 0 0
0 0 0 0 0 0 0 0 0 0 0 0 0 0 0 0 0 0 0 0 0 0 0 0 0 0 0 0 0 0 0 0 0 0 0 0 0 0 0 0 0 0 0 0
0 0 0 0 0 0 0 0 0 0 0 0 0 0 0 0 0 0 0 0 0 0 0 0 0 0 0 0 0 0 0 0 0 0 0 0 0 0 0 0 0 0 0 0
0 0 0 0 0 0 0 0 0 0 0 0 0 0 0 0 0 0 0 0 0 0 0 0 0 0 0 0 0 0 0 0 0 0 0 0 0 0 0 0 0 0 0 0
0 0 0 0 0 0 0 0 0 0 0 0 0 0 0 0 0 0 0 0 0 0 0 0 0 0 0 0 0 0 0 0 0 0 0 0 0 0 0 0 0 0 0 0
0 0 0 0 0 0 0 0 0 0 0 0 0 0 0 0 0 0 0 0 0 0 0 0 0 0 0 0 0 0 0 0 0 0 0 0 0 0 0 0 0 0 0 0
0 0 0 0 0 0 0 0 0 0 0 0 0 0 0 0 0 0 0 0 0 0 0 0 0 0 0 0 0 0 0 0 1 0 0 0 0 0 0 0 0 0 0 0
0 0 0 0 0 0 0 0 0 0 0 0 0 0 0 0 0 0 0 0 0 0 0 0 0 0 0 0 0 0 0 0 0 1 0 0 0 0 0 1 0 0 4 11
0 0 0 0 0 0 0 0 0 0 0 0 0 0 0 0 0 0 0 0 0 0 0 0 0 0 0 0 0 0 0 0 4 5 4 0 0 0 1 4 0 16 15 20
0 0 0 0 0 0 0 0 0 0 0 0 0 0 0 0 0 0 0 0 0 0 0 0 0 0 0 0 0 0 0 0 0 12 8 9 0 3 4 5 7 8 11 30
0 0 0 0 0 0 0 0 0 0 0 0 0 0 0 0 0 0 0 0 0 0 0 0 0 0 0 0 0 0 0 0 0 0 0 0 0 7 4 5 6 34 33 40
2 0 0 0 0 0 0 0 0 0 0 0 0 0 0 0 0 0 0 0 0 0 0 0 1 0 1 0 0 0 0 0 0 0 0 0 0 4 5 22 20 52 41 12
1 3 0 0 0 1 1 5 2 0 0 0 0 0 0 0 0 0 0 0 0 0 0 0 0 0 0 0 0 0 0 0 0 3 0 0 0 2 16 20 14 17 9 6
0 0 1 0 2 7 2 3 1 1 0 0 0 0 0 0 0 0 0 0 0 0 1 4 2 3 0 0 0 0 0 0 0 0 0 1 0 1 4 6 5 7 11 10
8 7 1 0 0 2 8 26 20 6 0 0 0 0 0 0 0 0 0 0 2 3 1 3 1 0 0 1 2 0 0 0 0 0 0 6 1 1 6 5 6 0 2 4
4 1 4 0 2 0 24 5 0 8 11 2 0 0 0 0 0 0 0 0 5 0 0 0 1 0 1 5 0 0 0 0 0 0 0 0 0 3 15 2 1 7 5 4
14 5 10 1 4 10 2 0 0 0 9 4 0 0 0 0 0 0 0 3 2 0 0 2 5 1 8 11 1 0 0 0 0 0 0 0 7 0 4 4 2 0 3 5
24 6 8 4 5 9 10 13 0 12 10 4 0 0 0 0 0 2 8 4 0 2 1 3 9 10 13 1 0 0 0 0 0 1 0 0 1 2 1 1 4 4 4 3
5 24 7 1 24 23 4 0 0 25 10 0 0 0 0 0 0 1 0 4 1 1 2 5 1 3 1 0 0 0 0 0 0 0 0 0 1 3 1 6 4 1 1 6
22 0 2 1 18 4 0 5 2 20 10 26 4 0 0 0 1 4 2 6 1 1 0 1 4 0 0 0 0 0 0 0 0 0 0 0 3 9 9 8 9 8 9 7
1 1 2 2 2 7 15 5 8 2 1 0 1 2 0 0 0 2 0 4 1 0 0 0 0 0 0 0 0 0 0 0 0 0 0 4 8 5 5 6 8 5 9 5
0 1 0 0 3 1 0 1 1 1 0 0 1 1 3 0 0 5 0 0 0 0 1 4 0 0 0 0 0 0 0 0 0 0 3 4 8 8 5 4 2 5 5 4
0 0 0 0 0 0 0 0 2 1 0 0 1 2 0 0 3 1 1 0 0 0 3 0 0 0 0 0 0 0 0 0 1 3 4 0 1 4 1 3 1 5 4 3
0 0 0 0 0 0 0 0 0 0 0 0 0 4 0 4 2 2 2 0 0 1 0 0 0 0 0 0 0 0 0 1 1 1 0 2 0 3 2 0 0 3 3 2
0 0 0 0 0 0 0 0 0 0 0 0 0 1 2 2 0 1 0 1 0 0 0 0 0 0 0 0 0 0 0 1 3 1 1 2 0 4 2 2 0 0 1 2
0 0 0 0 0 0 0 0 0 0 0 0 0 1 0 0 0 1 0 0 0 0 0 0 0 0 0 0 0 0 0 1 1 2 0 2 0 2 2 0 1 2 1 1
0 0 0 0 0 0 0 0 0 0 0 0 0 0 0 0 0 0 0 0 0 0 0 0 0 0 0 0 0 0 1 1 1 2 2 0 1 0 0 1 0 2 2 1
CIN
0 0 0 0 0 0 0 0 0 0 0 0 0 0 0 0 0 0 0 0 0 0 0 0 0 0 0 0 0 0 0 0 0 0 0 0 0 0 0 0 0 0 0 0
0 0 0 0 0 0 0 0 0 0 0 0 0 0 0 0 0 0 0 0 0 0 0 0 0 0 0 0 0 0 0 0 0 0 0 0 0 0 0 0 -1 0 0 0
0 0 0 0 0 0 0 0 0 0 0 0 0 0 0 0 0 0 0 0 0 0 0 0 0 0 0 0 0 0 0 0 0 0 0 0 0 0 0 0 0 0 0 0
0 0 0 0 0 0 0 0 0 0 0 0 0 0 0 0 0 0 0 0 0 0 0 0 0 0 0 0 0 0 0 0 0 0 0 0 0 0 0 0 0 -1 0 0
0 0 0 0 0 0 0 0 0 0 0 0 0 0 0 0 0 0 0 0 0 0 0 0 0 0 0 0 0 0 0 0 0 0 0 0 0 0 0 0 0 0 0 0
0 0 0 0 0 0 0 0 0 0 0 0 0 0 0 0 0 0 0 0 0 0 0 0 0 0 0 0 0 0 0 0 0 0 0 0 0 0 0 0 0 0 0 0
0 0 0 0 0 0 0 0 0 0 0 0 0 0 0 0 0 0 0 0 0 0 0 0 0 0 0 0 0 0 0 0 -2 0 -3 0 0 0 0 0 0 -4 -3 -2
0 0 0 0 0 0 0 0 0 0 0 0 0 0 0 0 0 0 0 0 0 0 0 0 0 0 0 0 0 0 0 0 -2 -1 0 0 0 0 0 -5 -1 0 -7 -9
0 0 0 0 0 0 0 0 0 0 0 0 0 0 0 0 0 0 0 0 0 0 0 0 0 0 0 0 0 0 0 0 -2 -3 -1 0 0 0 -5 -23 -1 -8 -32 -37
0 0 0 0 0 0 0 0 0 0 0 0 0 0 0 0 0 0 0 0 0 0 0 0 0 0 0 0 0 0 0 0 -2 -1 -2 -3 0 -8 -17 -9 -6 -32 -42 -16
0 0 0 0 0 0 0 0 0 0 0 0 0 0 0 0 0 0 0 0 0 0 0 0 0 0 0 0 0 0 0 -2 -2 -2 -2 0 0 -1 -3 -3 -2 -7 -5 -2
0 0 0 0 0 0 0 0 0 0 0 0 0 0 0 0 0 0 0 0 0 0 0 0 0 0 -1 0 -2 0 0 0 -1 0 0 0 -1 -2 -2 -2 -2 -1 -2 -14
-1 -2 -1 0 0 0 -4 -1 0 0 0 0 0 0 0 0 0 0 0 0 0 0 0 -1 0 0 0 0 0 0 0 0 -1 0 0 -3 0 -6 -4 -8 -3 -4 -3 -1
0 0 -3 0 -3 -2 -5 -2 0 -1 0 0 0 0 0 0 0 0 0 0 0 0 0 0 -1 0 0 0 0 0 0 0 0 0 0 -3 0 -3 -4 -1 -1 -1 0 -1
0 -1 -3 0 -2 -5 -1 0 0 0 0 0 0 0 0 0 0 0 0 0 -1 -1 -1 -1 -2 0 0 -1 -1 0 0 0 -1 0 0 -2 -1 -2 -1 -2 -2 -1 -9 -3
-2 -2 -1 0 -6 0 0 0 0 0 0 -1 0 0 0 0 0 0 0 -1 -1 -1 0 -1 0 -1 0 0 0 0 0 0 0 0 0 0 0 -1 -1 -4 -3 0 0 0
-1 -3 -1 -6 -7 0 -1 0 0 0 -1 0 0 0 0 0 0 0 0 -1 -2 -1 -1 0 0 -1 -1 0 0 0 0 0 0 0 -2 0 -1 -2 -1 -1 0 -3 -2 -3
0 -3 -6 -8 -7 -3 0 -1 0 -7 0 0 0 0 0 0 0 0 -1 -1 -1 0 0 -1 0 -1 -1 -1 0 0 0 0 0 -2 0 -1 -3 -3 -4 -2 0 -3 -1 -3
-1 -2 -3 -4 -1 0 -3 0 0 -4 -2 0 0 0 0 0 0 -1 0 -2 0 -1 0 0 0 -1 0 0 0 0 0 0 0 0 0 0 -3 -3 -4 -2 -2 -1 -2 0
0 0 0 0 0 -9 0 0 0 0 -2 0 0 0 0 0 0 0 0 0 0 0 0 -1 -1 -1 0 0 0 0 0 0 0 0 0 0 -2 -1 -1 -1 0 0 0 0
-2 0 0 0 -6 -2 0 0 0 0 0 0 0 0 -1 0 0 -1 0 -1 0 0 0 0 0 0 0 0 0 0 0 0 0 0 -1 0 0 0 0 0 0 0 0 0
0 0 0 0 -3 0 0 0 0 0 0 0 0 0 -1 0 -1 -1 0 0 0 0 0 -1 0 0 0 0 0 0 0 0 0 -1 0 -1 0 0 -1 -1 0 0 0 0
0 0 0 0 0 0 0 0 0 0 0 0 0 0 0 0 -1 0 0 0 0 0 -1 0 0 0 0 0 0 0 0 0 -1 0 0 0 0 0 0 -1 0 0 0 0
0 0 0 0 0 0 0 0 0 0 0 0 0 0 0 0 0 0 0 0 0 0 0 0 0 0 0 0 0 0 0 0 0 0 0 0 0 0 0 0 0 0 0 0
0 0 0 0 0 0 0 0 0 0 0 0 -1 0 0 0 0 0 0 0 0 0 0 0 0 0 0 0 0 0 0 0 0 0 -1 0 0 0 -1 0 0 0 0 0
0 0 0 0 0 0 0 0 0 0 0 0 0 0 0 0 0 0 0 0 0 0 0 0 0 0 0 0 0 0 0 0 0 0 0 0 0 0 -1 0 0 0 0 0
0 0 0 0 0 0 0 0 0 0 0 0 0 0 0 0 0 0 0 0 0 0 0 0 0 0 0 0 0 0 0 -1 0 0 -1 0 0 0 0 0 0 0 0 -1
Wind_Speed
25 24 24 22 17 12 14 14 17 12 11 17 19 17 17 16 18 19 19 19 20 20 23 22 22 22 23 22 26 30 27 29 34 35 36 30 27 28 29 38 46 46 52 60
26 26 26 25 21 17 17 17 19 20 12 18 19 17 18 18 18 21 19 20 22 21 22 26 22 23 20 22 27 28 31 27 38 30 27 27 27 25 34 42 44 50 53 55
28 28 28 28 25 21 17 17 17 20 21 20 18 18 18 18 19 20 21 20 20 23 23 22 24 24 23 22 26 27 25 26 28 34 37 39 41 41 43 43 47 51 51 58
29 29 29 30 28 22 18 19 18 18 19 21 19 19 18 18 20 19 19 21 22 25 26 26 24 25 25 25 24 24 24 30 30 33 37 39 41 43 43 43 45 49 54 53
30 30 31 31 30 24 19 18 17 18 19 18 18 19 19 18 20 20 21 22 22 24 25 26 28 28 27 26 25 24 26 30 36 38 37 37 41 41 40 41 42 43 46 50
31 31 31 32 32 24 19 19 17 18 18 18 18 20 18 18 19 19 20 21 24 25 25 25 24 24 23 22 25 28 29 31 36 41 36 43 45 32 35 42 42 43 49 47
30 30 31 31 30 27 21 20 19 19 20 17 19 18 18 18 19 20 19 19 23 23 23 26 23 21 21 19 21 19 26 30 32 41 42 42 29 36 42 42 40 40 42 41
28 29 29 29 29 27 23 22 20 20 20 18 17 17 18 18 18 20 20 19 20 22 26 29 31 26 27 24 22 20 20 27 34 36 39 41 43 38 45 46 45 40 38 34
26 27 27 28 28 27 23 24 22 20 20 18 18 15 16 20 20 20 20 18 20 21 26 28 33 33 32 31 30 21 23 24 28 36 43 46 41 46 38 36 45 32 30 38
25 25 26 26 27 27 24 23 24 21 21 17 14 17 18 16 18 22 21 20 21 20 26 29 30 32 27 33 33 33 31 31 32 35 39 38 36 34 33 41 41 41 43 43
24 24 24 24 25 25 25 22 24 23 22 19 13 14 15 15 16 23 20 24 21 23 26 28 28 29 28 30 30 31 33 34 35 34 39 45 32 35 42 42 41 39 38 39
23 22 22 22 23 23 23 23 22 22 21 21 17 13 10 11 15 18 16 22 22 21 24 24 26 28 28 30 36 28 34 28 35 34 35 35 39 38 35 35 37 36 37 39
23 23 21 21 22 22 21 23 22 23 23 23 18 17 10 7 8 11 19 19 18 20 19 24 24 28 27 33 32 35 31 31 35 38 35 35 35 33 33 33 36 36 34 35
19 19 20 20 22 22 21 22 22 22 24 25 19 17 14 12 7 8 9 18 18 20 19 21 24 28 23 30 32 35 34 34 34 34 34 34 34 35 37 37 33 36 36 35
23 20 21 19 19 21 22 21 22 20 21 24 24 24 16 12 13 11 10 10 15 20 21 22 25 25 28 30 30 34 29 31 34 39 36 37 38 36 36 36 37 39 39 38
22 20 18 22 19 18 21 25 19 15 15 24 29 21 20 17 16 9 11 12 14 16 20 22 22 20 27 31 35 31 25 26 28 35 35 35 36 33 33 37 40 39 36 36
26 23 20 20 19 18 22 25 22 15 16 24 30 27 19 16 16 17 15 13 15 16 20 22 24 26 25 30 33 26 28 28 30 31 34 37 34 40 39 39 40 38 33 31
21 22 22 22 20 23 27 23 19 16 23 23 27 27 25 15 21 20 15 17 17 18 21 23 27 27 22 31 27 26 23 28 30 31 34 34 36 39 40 42 40 33 34 32
18 17 16 22 26 29 27 17 19 18 23 27 26 29 32 19 20 19 18 17 23 20 22 23 25 25 28 26 26 26 28 31 34 34 36 39 41 41 38 36 36 35 36 38
16 14 22 28 23 13 13 17 20 20 21 25 32 23 29 19 21 22 20 19 22 27 23 21 26 29 25 21 22 23 25 30 34 40 42 42 40 39 36 36 37 39 39 38
22 25 26 18 11 17 20 22 22 23 30 26 27 21 24 21 23 20 18 23 21 28 24 25 29 33 25 15 19 20 26 30 33 33 35 34 34 35 35 37 34 34 35 35
23 19 18 18 24 27 28 30 28 26 32 23 25 21 15 20 17 18 20 24 23 28 22 27 33 31 19 17 20 24 28 30 32 32 33 32 33 32 32 32 34 35 32 29
17 23 24 25 26 35 35 35 31 29 25 20 18 21 19 20 16 20 20 24 25 23 26 30 29 21 17 19 23 26 28 29 30 31 31 31 32 32 33 33 33 32 30 23
30 29 34 34 33 35 34 31 30 26 23 16 14 18 21 19 17 19 23 21 23 27 30 33 24 17 18 21 24 27 29 29 29 30 30 31 33 33 33 33 31 32 31 17
34 31 35 40 37 33 30 25 23 21 14 13 17 20 20 21 23 21 22 24 27 25 27 25 20 18 20 23 25 27 28 28 28 29 29 30 32 32 31 31 30 33 35 12
32 35 40 37 36 35 31 27 26 17 13 12 20 22 25 26 25 24 25 29 30 28 22 21 17 19 21 23 25 26 26 26 26 27 27 28 29 30 26 28 28 34 36 16
40 44 41 40 39 37 30 28 24 15 16 24 23 27 27 22 27 29 24 29 27 23 22 18 17 19 22 22 24 25 24 24 25 25 25 27 27 26 24 27 26 29 34 18
Wind_Direction
337 336 335 333 318 276 152 139 47 264 187 61 35 45 35 32 20 14 13 10 6 1 356 353 351 349 349 356 348 342 344 335 327 324 325 329 325 323 326 319 315 311 310 303
337 336 336 335 327 314 61 3 17 14 125 32 35 49 39 28 22 9 9 5 2 1 357 350 352 350 357 353 348 345 341 338 331 334 338 342 334 326 322 319 315 308 308 308
337 337 338 337 330 326 11 3 13 13 18 30 41 38 30 24 24 17 11 5 5 359 355 356 349 348 353 351 345 340 338 332 325 322 323 323 318 315 317 315 312 312 309 312
340 339 338 338 335 335 7 347 3 10 10 15 29 29 27 21 12 19 15 6 2 357 353 350 351 352 349 347 349 346 343 331 328 324 323 321 317 317 317 313 312 309 314 313
342 342 342 340 338 330 6 350 360 9 12 17 20 15 14 14 12 9 5 359 359 354 352 350 344 346 345 344 347 348 342 334 332 325 325 322 319 318 316 315 314 313 315 315
342 342 343 344 345 344 3 0 3 358 4 7 5 2 6 6 9 8 6 3 355 351 350 350 346 342 339 336 336 336 336 337 334 329 335 329 325 331 330 325 320 320 318 320
342 343 345 347 349 353 2 356 352 353 349 358 356 4 3 3 2 359 3 3 355 358 358 347 343 339 336 334 332 330 334 334 331 326 331 331 342 338 328 326 326 324 319 322
342 344 345 347 350 350 1 357 351 349 343 350 354 358 357 358 359 357 355 358 358 359 352 348 346 348 347 344 340 336 330 330 331 331 328 322 325 336 334 328 326 327 325 332
338 341 343 344 346 345 355 354 353 349 344 338 351 354 354 348 349 353 358 2 2 359 351 349 344 343 344 344 344 344 339 331 324 323 324 328 334 331 336 336 327 348 341 329
331 334 337 340 342 343 349 350 352 348 340 344 351 344 343 354 353 347 353 353 354 357 348 345 344 343 347 343 342 343 339 333 325 325 322 326 331 339 344 332 331 333 326 326
325 329 333 336 339 341 344 345 352 344 337 339 343 346 346 351 351 345 354 348 350 348 345 343 343 341 343 342 340 340 339 337 333 333 330 331 352 338 327 326 326 328 326 326
318 322 326 330 333 336 340 335 346 347 339 335 341 332 331 342 352 349 352 347 350 349 345 345 345 339 340 339 338 343 337 337 331 328 322 319 325 324 325 327 325 330 328 326
309 313 318 321 324 327 329 328 335 337 335 333 339 338 332 324 339 357 342 345 346 346 346 346 344 337 340 338 338 336 334 334 327 327 326 326 329 329 331 335 329 326 327 326
300 306 310 317 317 318 320 320 328 330 329 325 336 350 342 344 332 330 326 341 348 344 346 340 339 335 341 337 335 331 332 336 334 329 331 332 332 333 332 328 328 327 326 324
292 302 306 307 311 311 315 314 315 320 327 322 325 329 326 328 333 330 319 315 328 338 336 335 334 335 335 334 333 330 338 336 334 331 334 332 331 332 333 330 328 328 324 317
289 297 299 295 303 309 312 315 320 318 320 323 320 333 330 336 341 323 322 320 321 325 333 333 336 333 336 338 337 340 349 346 339 335 339 336 330 331 331 331 326 323 319 316
282 285 290 295 295 299 301 307 319 319 319 322 317 321 336 337 336 329 326 324 328 328 327 327 326 328 330 329 323 326 334 338 343 343 343 338 338 332 330 327 328 326 318 317
276 280 283 285 296 294 295 295 306 310 316 317 313 316 322 333 328 325 332 328 325 326 323 327 326 331 333 330 333 338 341 342 341 343 340 334 331 332 334 334 335 333 335 332
269 275 281 290 286 285 294 300 301 297 305 307 307 310 315 331 325 329 329 327 322 325 320 321 330 328 326 330 335 339 344 343 340 341 340 339 340 340 341 342 344 343 341 340
252 264 281 285 289 301 316 310 302 299 299 296 299 302 308 319 321 320 325 328 324 323 326 335 325 318 317 329 338 345 346 345 344 342 343 345 346 348 349 348 348 347 346 345
252 262 274 292 297 297 294 295 295 298 297 298 302 293 302 314 311 313 318 323 327 322 328 327 329 330 334 350 350 350 348 346 347 348 348 350 350 352 352 352 353 352 352 351
246 261 278 280 283 284 282 285 290 287 294 301 304 308 302 316 320 315 321 316 321 318 331 327 327 335 351 352 350 348 348 348 350 352 352 354 354 355 355 356 357 358 358 356
246 264 268 270 273 271 277 275 282 288 294 294 300 309 308 314 314 314 315 313 313 326 322 323 327 344 351 350 348 348 349 350 352 353 354 356 356 358 359 359 2 4 7 4
250 251 257 260 270 272 267 274 283 282 287 291 294 305 309 313 309 313 312 313 320 316 317 320 332 342 345 347 348 347 348 351 353 354 356 358 358 360 2 4 7 8 13 3
250 251 254 259 263 270 278 277 284 290 282 281 295 304 306 306 304 307 308 312 310 316 319 325 337 344 344 345 347 347 348 351 354 355 357 359 359 2 5 7 11 9 9 344
248 255 254 257 262 262 270 268 277 280 271 285 298 299 299 296 300 299 298 305 306 316 316 327 335 337 340 343 345 346 348 352 353 355 358 360 1 5 10 10 14 6 360 312
249 250 252 257 261 264 264 268 268 259 262 280 293 290 290 301 297 298 302 304 309 315 318 325 332 334 337 340 342 344 348 351 353 355 359 360 3 8 14 13 18 12 345 305